Terug naar catalogus

FENGYUN 1C DEB

ActiefSSO
NORAD 38122·DEBRIS·🇨🇳 China

Gelanceerd May 10, 1999 vanaf Taiyuan Satellite Launch Center

Loading…

Volgende Passages (komende 24 uur)

TLE

VersSource: Space-Track

Epoch: Sep 12, 2026, 11:09 UTC

1 38122U 99025EPT 26255.46462282  .00001717  00000-0  38148-3 0  9998
2 38122  98.3228 256.8327 0225151  48.2119 313.8069 14.43799987716874

Volg FENGYUN 1C DEB in realtime met AllMySat

Download on the App Store